Previsão horária em Abakany

Hoje, 14 Abril, Quarta-feira

Tempo Temperatura Precipitação Vento Pressão Humidade
00:00 +5°C° 0.5 mm 3 m/s 749 mmHg 88%
01:00 +5°C° 0.5 mm 3 m/s 749 mmHg 88%
02:00 +4°C° 0 mm 3 m/s 749 mmHg 88%
03:00 +4°C° 0.4 mm 3 m/s 749 mmHg 88%
04:00 +4°C° 0.4 mm 3 m/s 749 mmHg 88%
05:00 +3°C° 0.4 mm 3 m/s 749 mmHg 87%
06:00 +3°C° 0 mm 3 m/s 749 mmHg 87%
07:00 +3°C° 0 mm 3 m/s 750 mmHg 86%
08:00 +3°C° 0 mm 3 m/s 750 mmHg 86%
09:00 +3°C° 0 mm 3 m/s 750 mmHg 85%
10:00 +3°C° 0 mm 3 m/s 751 mmHg 83%
11:00 +3°C° 0 mm 3 m/s 751 mmHg 81%
12:00 +3°C° 0.1 mm 3 m/s 751 mmHg 80%
13:00 +3°C° 0.1 mm 3 m/s 751 mmHg 79%
14:00 +3°C° 0 mm 3 m/s 751 mmHg 80%
15:00 +3°C° 0.1 mm 3 m/s 751 mmHg 79%
16:00 +3°C° 0.1 mm 3 m/s 751 mmHg 78%
17:00 +3°C° 0.1 mm 3 m/s 751 mmHg 77%
18:00 +3°C° 0 mm 3 m/s 751 mmHg 77%
19:00 +3°C° 0 mm 3 m/s 752 mmHg 77%
20:00 +3°C° 0 mm 3 m/s 752 mmHg 77%
21:00 +3°C° 0 mm 3 m/s 752 mmHg 77%
22:00 +3°C° 0 mm 3 m/s 752 mmHg 76%
23:00 +3°C° 0 mm 3 m/s 752 mmHg 76%

Amanhã, 15 Abril, Quinta-feira

Tempo Temperatura Precipitação Vento Pressão Humidade
00:00 +3°C° 0 mm 4 m/s 752 mmHg 77%
01:00 +3°C° 0 mm 4 m/s 752 mmHg 78%
02:00 +3°C° 0 mm 4 m/s 752 mmHg 79%
03:00 +1°C° 0 mm 4 m/s 752 mmHg 77%
04:00 +1°C° 0 mm 4 m/s 752 mmHg 76%
05:00 +1°C° 0 mm 5 m/s 752 mmHg 74%
06:00 +1°C° 0 mm 5 m/s 752 mmHg 74%
07:00 +2°C° 0 mm 5 m/s 752 mmHg 74%
08:00 +2°C° 0 mm 5 m/s 752 mmHg 74%
09:00 +3°C° 0 mm 5 m/s 752 mmHg 75%
10:00 +3°C° 0 mm 5 m/s 752 mmHg 75%
11:00 +3°C° 0 mm 5 m/s 752 mmHg 76%
12:00 +3°C° 0.1 mm 5 m/s 752 mmHg 78%
13:00 +3°C° 0.1 mm 5 m/s 752 mmHg 81%
14:00 +3°C° 0.1 mm 5 m/s 752 mmHg 83%
15:00 +3°C° 0.4 mm 6 m/s 752 mmHg 85%
16:00 +3°C° 0.4 mm 6 m/s 751 mmHg 86%
17:00 +3°C° 0.4 mm 6 m/s 751 mmHg 88%
18:00 +2°C° 0.2 mm 5 m/s 751 mmHg 89%
19:00 +2°C° 0.2 mm 5 m/s 751 mmHg 90%
20:00 +2°C° 0.2 mm 5 m/s 752 mmHg 91%
21:00 +2°C° 0.1 mm 5 m/s 751 mmHg 91%
22:00 +2°C° 0.1 mm 5 m/s 751 mmHg 91%
23:00 +2°C° 0.1 mm 5 m/s 751 mmHg 92%

Depois de amanhã, 16 Abril, Sexta-feira

Tempo Temperatura Precipitação Vento Pressão Humidade
00:00 +2°C° 0.1 mm 5 m/s 751 mmHg 92%
01:00 +3°C° 0.1 mm 5 m/s 751 mmHg 92%
02:00 +3°C° 0.1 mm 5 m/s 751 mmHg 92%
03:00 +3°C° 0.1 mm 5 m/s 751 mmHg 92%
04:00 +3°C° 0.1 mm 5 m/s 751 mmHg 91%
05:00 +3°C° 0.1 mm 5 m/s 751 mmHg 91%
06:00 +3°C° 0.1 mm 5 m/s 751 mmHg 90%
07:00 +3°C° 0.1 mm 5 m/s 751 mmHg 89%
08:00 +3°C° 0.1 mm 5 m/s 751 mmHg 88%
09:00 +5°C° 0.2 mm 5 m/s 751 mmHg 88%
10:00 +5°C° 0.2 mm 5 m/s 752 mmHg 88%
11:00 +5°C° 0.2 mm 4 m/s 752 mmHg 88%
12:00 +7°C° 0 mm 5 m/s 752 mmHg 83%
13:00 +8°C° 0 mm 5 m/s 752 mmHg 79%
14:00 +10°C° 0 mm 5 m/s 752 mmHg 74%
15:00 +10°C° 0 mm 5 m/s 752 mmHg 75%
16:00 +10°C° 0 mm 5 m/s 752 mmHg 75%
17:00 +10°C° 0 mm 5 m/s 752 mmHg 76%
18:00 +11°C° 0 mm 4 m/s 752 mmHg 78%
19:00 +10°C° 0 mm 4 m/s 753 mmHg 79%
20:00 +8°C° 0 mm 4 m/s 753 mmHg 81%
21:00 +8°C° 0 mm 4 m/s 753 mmHg 82%
22:00 +7°C° 0 mm 4 m/s 753 mmHg 83%
23:00 +7°C° 0 mm 4 m/s 753 mmHg 84%

17 Abril, Sábado

Tempo Temperatura Precipitação Vento Pressão Humidade
00:00 +6°C° 0 mm 4 m/s 753 mmHg 83%
01:00 +5°C° 0 mm 4 m/s 753 mmHg 83%
02:00 +5°C° 0 mm 4 m/s 753 mmHg 82%
03:00 +4°C° 0 mm 4 m/s 754 mmHg 82%
04:00 +4°C° 0 mm 4 m/s 754 mmHg 82%
05:00 +4°C° 0 mm 4 m/s 754 mmHg 82%
06:00 +4°C° 0 mm 4 m/s 754 mmHg 80%
07:00 +5°C° 0 mm 4 m/s 754 mmHg 78%
08:00 +5°C° 0 mm 4 m/s 755 mmHg 77%
09:00 +7°C° 0 mm 4 m/s 755 mmHg 73%
10:00 +8°C° 0 mm 4 m/s 755 mmHg 70%
11:00 +10°C° 0 mm 4 m/s 755 mmHg 67%
12:00 +11°C° 0 mm 4 m/s 755 mmHg 64%
13:00 +12°C° 0 mm 4 m/s 755 mmHg 61%
14:00 +13°C° 0 mm 4 m/s 755 mmHg 59%
15:00 +13°C° 0 mm 4 m/s 755 mmHg 61%
16:00 +13°C° 0 mm 3 m/s 755 mmHg 63%
17:00 +12°C° 0 mm 3 m/s 755 mmHg 66%
18:00 +12°C° 0 mm 3 m/s 755 mmHg 70%
19:00 +12°C° 0 mm 2 m/s 756 mmHg 74%
20:00 +10°C° 0 mm 2 m/s 756 mmHg 78%
21:00 +10°C° 0 mm 2 m/s 756 mmHg 79%
22:00 +9°C° 0 mm 2 m/s 756 mmHg 80%
23:00 +9°C° 0 mm 2 m/s 756 mmHg 80%

18 Abril, Domingo

Tempo Temperatura Precipitação Vento Pressão Humidade
00:00 +8°C° 0 mm 2 m/s 757 mmHg 81%
01:00 +7°C° 0 mm 2 m/s 757 mmHg 81%
02:00 +6°C° 0 mm 2 m/s 757 mmHg 81%
03:00 +5°C° 0 mm 2 m/s 757 mmHg 80%
04:00 +5°C° 0 mm 2 m/s 757 mmHg 79%
05:00 +4°C° 0 mm 2 m/s 757 mmHg 79%
06:00 +5°C° 0 mm 3 m/s 757 mmHg 72%
07:00 +7°C° 0 mm 3 m/s 757 mmHg 65%
08:00 +9°C° 0 mm 3 m/s 757 mmHg 58%
09:00 +10°C° 0 mm 3 m/s 757 mmHg 53%
10:00 +12°C° 0 mm 3 m/s 757 mmHg 49%
11:00 +13°C° 0 mm 4 m/s 758 mmHg 44%
12:00 +14°C° 0 mm 4 m/s 757 mmHg 41%
13:00 +14°C° 0 mm 4 m/s 757 mmHg 39%
14:00 +15°C° 0 mm 4 m/s 757 mmHg 37%
15:00 +16°C° 0 mm 3 m/s 757 mmHg 38%
16:00 +14°C° 0 mm 3 m/s 757 mmHg 40%
17:00 +14°C° 0 mm 3 m/s 757 mmHg 42%
18:00 +12°C° 0 mm 3 m/s 757 mmHg 49%
19:00 +10°C° 0 mm 2 m/s 757 mmHg 57%
20:00 +8°C° 0 mm 2 m/s 757 mmHg 64%
21:00 +8°C° 0 mm 2 m/s 758 mmHg 66%
22:00 +7°C° 0 mm 2 m/s 758 mmHg 69%
23:00 +7°C° 0 mm 2 m/s 758 mmHg 71%

19 Abril, Segunda-feira

Tempo Temperatura Precipitação Vento Pressão Humidade
00:00 +6°C° 0 mm 2 m/s 758 mmHg 72%
01:00 +6°C° 0 mm 2 m/s 758 mmHg 74%
02:00 +5°C° 0 mm 2 m/s 758 mmHg 76%
03:00 +5°C° 0 mm 2 m/s 758 mmHg 77%
04:00 +4°C° 0 mm 2 m/s 758 mmHg 78%
05:00 +4°C° 0 mm 2 m/s 758 mmHg 79%
06:00 +6°C° 0 mm 2 m/s 758 mmHg 72%
07:00 +8°C° 0 mm 3 m/s 758 mmHg 65%
08:00 +9°C° 0 mm 3 m/s 758 mmHg 58%
09:00 +11°C° 0 mm 3 m/s 758 mmHg 52%
10:00 +12°C° 0 mm 3 m/s 758 mmHg 46%
11:00 +14°C° 0 mm 4 m/s 758 mmHg 40%
12:00 +14°C° 0 mm 4 m/s 758 mmHg 39%
13:00 +14°C° 0 mm 4 m/s 758 mmHg 37%
14:00 +15°C° 0 mm 4 m/s 758 mmHg 35%
15:00 +16°C° 0 mm 3 m/s 757 mmHg 37%
16:00 +16°C° 0 mm 3 m/s 757 mmHg 39%
17:00 +14°C° 0 mm 3 m/s 757 mmHg 40%
18:00 +13°C° 0 mm 3 m/s 757 mmHg 48%
19:00 +11°C° 0 mm 3 m/s 757 mmHg 55%
20:00 +8°C° 0 mm 4 m/s 757 mmHg 62%
21:00 +9°C° 0 mm 3 m/s 757 mmHg 66%
22:00 +8°C° 0 mm 3 m/s 757 mmHg 70%
23:00 +8°C° 0 mm 3 m/s 757 mmHg 74%
Mostrar mais

Necessitamos do seu Consentimento

A Meteoprog e os seus Fornecedores de Serviços podem armazenar e aceder a dados pessoais como cookies, identificadores do dispositivo ou outras tecnologias semelhantes existentes no seu dispositivo e processar estes dados para personalizar conteúdos e anúncios, assim como funcionalidades nas redes sociais e análise de tráfego.

  • Armazenar e/ou aceder a informações no seu dispositivo

    Os cookies, identificadores do dispositivo ou outras informações podem ser armazenados ou acedidos no seu dispositivo, para os fins acima indicados.

  • Anúncios e conteúdos personalizados, medição de anúncios e conteúdos, dados sobre o público-alvo e desenvolvimento de produtos

    Os anúncios e os conteúdos podem ser personalizados com base num perfil. Podem ser adicionados dados adicionais para uma maior personalização dos anúncios e dos conteúdos. A eficácia dos anúncios e dos conteúdos pode ser medida. Podem ser obtidas informações sobre o público que visualizou os anúncios e os conteúdos. Estes dados podem ser usados para desenvolver ou melhorar sistemas, softwares ou a experiência do utilizador.

Ao clicar em "Eu concordo”, permitirá o uso de cookies, identificadores do dispositivo e web beacons mencionados ou outras tecnologias semelhantes. As configurações do navegador do seu dispositivo podem ser alteradas.

Para certos fins, podem ser invocados interesses legítimos ao invés de consentimento. Pode ler mais informação sobre este assunto na nossa Política de Privacidade e Cookies.